Location: Unspecified
(0.0000°N, 0.0000°E)
Time: 09:47:59
(UTC+02:00)

Amateur Radio Satellites - All Passes

Search period start: 04 September 2015 09:17
Search period end: 05 September 2015 09:17
Location: Unspecified, 0.0000°N, 0.0000°E

Satellite Date Start Highest point End Downlink Frequencies (MHz)
Time Altitude Azimuth
YUBILEINY 04 Sep 09:22:13 09:30:28 48° 86° (E) 09:38:49 435.215
AIST 1 04 Sep 09:23:06 09:26:35 23° 275° (W) 09:29:56
STRAND 1 04 Sep 09:29:27 09:33:46 27° 258° (WSW) 09:37:57 437.568
Cosmos 2491 04 Sep 09:43:20 09:52:04 77° 94° (E) 10:00:45 435.465 / 435.565
HO-68 04 Sep 09:45:09 09:51:55 47° 104° (ESE) 09:58:45 435.675
JUGNU 04 Sep 09:47:35 09:53:20 46° 340° (NNW) 09:59:03 437.505
CUTE 1.7 + AOD 2 04 Sep 10:03:03 10:07:09 58° 101° (E) 10:11:18 437.475
CANX-2 04 Sep 10:17:33 10:21:44 71° 281° (W) 10:25:56 2200.000
CUBEBUG 2 04 Sep 10:29:21 10:32:46 23° 100° (E) 10:36:14 437.445
UWE-3 04 Sep 10:29:31 10:32:03 16° 99° (E) 10:34:47 435.000/436.395/437.385
SEEDS 04 Sep 10:32:35 10:36:43 66° 281° (W) 10:40:52 437.485
BRITE-PL 04 Sep 10:39:49 10:41:07 10° 280° (W) 10:41:52 437.365/2234.400
DOVE 4 04 Sep 10:43:22 10:47:42 27° 281° (WNW) 10:51:47 437.250
COMPASS 1 04 Sep 10:48:33 10:52:34 52° 281° (W) 10:56:36 437.405
GOMX 1 04 Sep 10:48:51 10:51:46 14° 281° (W) 10:54:15 467.674
Cosmos 2504 04 Sep 10:54:28 10:58:44 17° 82° (E) 11:03:25 435.465 / 435.565
DELFI C3 04 Sep 10:54:40 10:57:53 25° 101° (E) 11:01:12 145.870
AAUSAT CUBESAT 2 04 Sep 10:55:32 10:59:32 51° 281° (W) 11:03:34 437.432
Oscar 11 04 Sep 10:57:49 11:01:59 53° 101° (E) 11:06:12 145.826/435.025
CINEMA 3 04 Sep 11:02:18 11:06:43 39° 281° (WNW) 11:10:55 145.822/145.860
SRMSAT 04 Sep 11:03:49 11:09:45 63° 339° (NNW) 11:15:40 437.500
VERMONT LUNAR 04 Sep 11:04:30 11:06:58 24° 42° (NE) 11:09:28 437.305
YUBILEINY 04 Sep 11:20:49 11:27:14 21° 264° (W) 11:33:03 435.215
ANTELSAT 04 Sep 11:25:20 11:28:31 19° 79° (E) 11:31:56 437.575/2403.000
HO-68 04 Sep 11:34:38 11:39:33 19° 283° (WNW) 11:44:02 435.675
JUGNU 04 Sep 11:38:30 11:42:45 19° 345° (NNW) 11:46:54 437.505
CUSAT 1 04 Sep 11:39:36 11:46:11 29° 81° (E) 11:52:17 437.405
SO-50 04 Sep 11:42:56 11:47:19 39° 67° (ENE) 11:51:36 436.795
Cosmos 2491 04 Sep 11:46:51 11:49:04 11° 277° (W) 11:50:10 435.465 / 435.565
ZACube-1 04 Sep 11:49:07 11:53:14 47° 281° (W) 11:57:17 437.345
FUNcube-1 04 Sep 11:52:50 11:56:54 43° 281° (W) 12:00:54 145.935
VELOX 1 04 Sep 12:01:10 12:04:04 18° 101° (E) 12:07:11 145.980
AUBIESAT-1 04 Sep 12:03:34 12:07:55 41° 75° (ENE) 12:12:24 437.475
HUMSAT D 04 Sep 12:03:40 12:07:46 79° 101° (E) 12:11:52 437.325/437.525
UWE-3 04 Sep 12:05:13 12:08:29 20° 281° (W) 12:11:32 435.000/436.395/437.385
CUBEBUG 2 04 Sep 12:06:49 12:09:19 14° 281° (W) 12:11:33 437.445
M-CUBED/EXP-1 PRIME 04 Sep 12:12:13 12:16:51 68° 75° (ENE) 12:21:37 437.505
UNISAT 6 04 Sep 12:14:48 12:19:25 86° 259° (WSW) 12:24:05 437.425
DX 1 04 Sep 12:31:51 12:36:15 88° 275° (W) 12:40:38 434.975-435.025
DELFI C3 04 Sep 12:31:53 12:32:50 10° 279° (W) 12:33:29 145.870
BUGSAT 1 04 Sep 12:32:20 12:35:10 19° 79° (E) 12:38:09 437.445
DANDE 04 Sep 12:32:26 12:40:48 61° 84° (E) 12:48:23 436.750
UKube-1 04 Sep 12:38:36 12:42:56 81° 282° (WNW) 12:47:18 .
DUCHIFAT 1 04 Sep 12:39:49 12:43:54 50° 79° (E) 12:48:00 145.980
50 SAT 04 Sep 12:41:22 12:45:10 86° 283° (WNW) 12:48:58 437.505
POLYITAN 1 04 Sep 12:41:34 12:45:45 59° 79° (E) 12:49:56 437.675
VERMONT LUNAR 04 Sep 12:41:47 12:43:18 13° 221° (SW) 12:44:43 437.305
TIGRISAT 04 Sep 12:42:10 12:46:26 38° 259° (W) 12:50:43 435.000
POPSAT HIP 1 04 Sep 12:42:40 12:46:50 59° 79° (ENE) 12:51:00 437.405
Cosmos 2504 04 Sep 12:43:30 12:51:01 49° 267° (W) 12:57:58 435.465 / 435.565
SRMSAT 04 Sep 12:54:21 12:59:10 25° 343° (NNW) 13:03:54 437.500
PHONESAT 2.4 04 Sep 12:57:34 12:59:23 14° 41° (NE) 13:01:21 2401.200-2431.200
CUBEBUG 1 04 Sep 12:57:59 13:02:21 62° 101° (ESE) 13:06:45 437.445
NANOSAT C BR1 04 Sep 12:58:35 13:02:48 79° 258° (WSW) 13:07:01 145.865
QB50P2 04 Sep 13:00:34 13:04:48 69° 259° (W) 13:09:01 145.880/145.840
ANTELSAT 04 Sep 13:01:40 13:05:10 21° 260° (W) 13:08:31 437.575/2403.000
AISAT 04 Sep 13:09:06 13:13:23 45° 281° (WNW) 13:17:39 437.250
ESTCUBE 1 04 Sep 13:09:20 13:13:49 70° 281° (WNW) 13:18:21 437.505/2401.250
QB50P1 04 Sep 13:14:02 13:18:05 44° 259° (W) 13:22:07 145.935-145.965
CUSAT 1 04 Sep 13:21:29 13:28:39 34° 266° (W) 13:34:46 437.405
PCSat 04 Sep 13:27:46 13:33:04 59° 251° (WSW) 13:38:23 145.827
TISAT 1 04 Sep 13:29:48 13:32:26 17° 100° (E) 13:35:16 437.305
JUGNU 04 Sep 13:31:15 13:32:40 11° 354° (N) 13:34:01 437.505
VELOX 1 04 Sep 13:37:07 13:40:29 20° 281° (W) 13:43:42 145.980
BEESAT 3 04 Sep 13:38:59 13:42:49 46° 112° (ESE) 13:46:42 437.485
AUBIESAT-1 04 Sep 13:41:27 13:42:32 10° 257° (WSW) 13:43:13 437.475
BEESAT 2 04 Sep 13:56:35 14:00:32 56° 112° (ESE) 14:04:31 435.950
BUGSAT 1 04 Sep 14:08:13 14:10:31 14° 260° (W) 14:12:36 437.445
GONETS M04 04 Sep 14:13:07 14:17:53 17° 84° (E) 14:23:25
SPROUT 04 Sep 14:14:59 14:19:08 46° 281° (W) 14:23:16 437.525
DANDE 04 Sep 14:18:12 14:23:41 18° 265° (W) 14:28:15 436.750
BEESAT 04 Sep 14:28:32 14:29:45 11° 100° (E) 14:31:23 436.000
PHONESAT 2.4 04 Sep 14:34:09 14:37:12 30° 222° (SW) 14:40:16 2401.200-2431.200
SRMSAT 04 Sep 14:46:42 14:49:05 12° 351° (N) 14:51:22 437.500
Oscar 19 04 Sep 14:48:49 14:53:46 50° 78° (ENE) 14:58:46 437.125/150
SWISSCUBE 04 Sep 14:52:21 14:56:22 28° 101° (ESE) 15:00:30 437.505
AIST 2 04 Sep 14:58:38 15:02:40 48° 112° (ESE) 15:06:45 435.215
TISAT 1 04 Sep 15:04:59 15:08:05 19° 280° (W) 15:11:00 437.305
JAS-2 04 Sep 15:19:26 15:22:54 15° 77° (ENE) 15:27:07 435.910
RS-15 04 Sep 15:20:03 15:30:47 63° 112° (ESE) 15:41:32 29.354- 29.394
JUGNU 04 Sep 15:22:03 15:22:51 10° 4° (N) 15:23:42 437.505
ITUPSAT 1 04 Sep 15:32:02 15:36:48 85° 103° (ESE) 15:41:36 437.325
ITAMSAT 1 04 Sep 15:56:00 16:01:05 56° 78° (ENE) 16:06:09 435.822/435.867
Gurwin Techsat 1B 04 Sep 16:00:07 16:05:27 83° 79° (E) 16:10:46 435.225
BEESAT 04 Sep 16:03:08 16:07:30 36° 282° (WNW) 16:11:50 436.000
GONETS M04 04 Sep 16:06:05 16:14:43 58° 266° (W) 16:23:20
KKS-1 04 Sep 16:12:31 16:16:17 28° 101° (E) 16:20:10 437.445
Cosmos 2499 04 Sep 16:16:43 16:23:23 32° 84° (E) 16:29:53 435.465 / 435.565
SWISSCUBE 04 Sep 16:31:23 16:34:07 15° 280° (W) 16:36:33 437.505
JAS-2 04 Sep 17:00:39 17:07:39 63° 258° (WSW) 17:15:15 435.910
AO-7 04 Sep 17:00:46 17:08:32 44° 75° (ENE) 17:16:22 29.400- 29.500
JUGNU 04 Sep 17:08:58 17:12:48 18° 14° (NNE) 17:16:41 437.505
STARS 04 Sep 17:19:50 17:24:11 61° 282° (WNW) 17:28:32 437.465
RS-15 04 Sep 17:35:38 17:43:15 20° 296° (WNW) 17:50:04 29.354- 29.394
HORYU 2 04 Sep 17:36:37 17:41:07 80° 80° (E) 17:45:37 437.375
ISS 04 Sep 17:38:33 17:41:13 24° 54° (NE) 17:43:57 145.825
KKS-1 04 Sep 17:50:45 17:52:49 13° 280° (W) 17:54:34 437.445
Cosmos 2499 04 Sep 18:09:54 18:16:23 27° 266° (W) 18:22:15 435.465 / 435.565
SRMSAT 04 Sep 18:26:32 18:29:35 14° 11° (NNE) 18:32:43 437.500
MOZHAYETS 4 04 Sep 18:29:03 18:33:21 42° 281° (W) 18:37:40
O/OREOS (USA 219) 04 Sep 18:37:19 18:41:49 83° 105° (ESE) 18:46:19 437.305
CUTE-I 04 Sep 18:51:46 18:53:25 12° 80° (E) 18:55:32 437.470
AO-7 04 Sep 18:54:32 19:01:11 25° 255° (WSW) 19:07:26 29.400- 29.500
JUGNU 04 Sep 18:56:44 19:02:14 41° 20° (NNE) 19:07:44 437.505
CUBESAT XI-V 04 Sep 18:57:50 19:01:01 19° 100° (E) 19:04:26 437.345
Cubesat XI-IV 04 Sep 19:44:30 19:49:45 58° 78° (ENE) 19:54:59 437.490
AIST 1 04 Sep 19:52:54 19:55:44 18° 85° (E) 19:58:47
SRMSAT 04 Sep 20:14:12 20:19:20 31° 18° (NNE) 20:24:33 437.500
STRAND 1 04 Sep 20:22:26 20:27:18 45° 102° (ESE) 20:32:13 437.568
Cosmos 2491 04 Sep 20:24:05 20:28:51 17° 84° (E) 20:34:23 435.465 / 435.565
CUTE-I 04 Sep 20:28:23 20:33:27 43° 258° (WSW) 20:38:26 437.470
CUBESAT XI-V 04 Sep 20:34:45 20:38:20 21° 280° (W) 20:41:47 437.345
JUGNU 04 Sep 20:45:27 20:51:18 72° 201° (SSW) 20:57:08 437.505
PRISM 04 Sep 20:50:56 20:55:03 70° 102° (ESE) 20:59:13 437.425
BRITE-PL 04 Sep 21:24:49 21:28:58 70° 259° (W) 21:33:15 437.365/2234.400
DOVE 4 04 Sep 21:26:36 21:30:17 27° 78° (ENE) 21:34:11 437.250
AIST 1 04 Sep 21:30:15 21:33:17 17° 264° (W) 21:36:06
GOMX 1 04 Sep 21:32:37 21:36:50 69° 79° (ENE) 21:41:17 467.674
HO-68 04 Sep 21:37:00 21:43:29 39° 77° (ENE) 21:50:05 435.675
CINEMA 3 04 Sep 21:43:03 21:45:39 16° 79° (E) 21:48:32 145.822/145.860
YUBILEINY 04 Sep 21:55:12 22:03:59 90° 87° (E) 22:12:47 435.215
SRMSAT 04 Sep 22:02:43 22:08:38 84° 20° (NNE) 22:14:37 437.500
STRAND 1 04 Sep 22:05:38 22:06:27 10° 280° (W) 22:06:47 437.568
CUTE 1.7 + AOD 2 04 Sep 22:09:36 22:13:54 75° 79° (E) 22:18:10 437.475
Cosmos 2491 04 Sep 22:17:06 22:25:42 58° 266° (W) 22:34:17 435.465 / 435.565
CANX-2 04 Sep 22:24:19 22:28:33 56° 259° (W) 22:32:46 2200.000
FUNcube-1 04 Sep 22:29:28 22:30:21 11° 80° (E) 22:31:35 145.935
VERMONT LUNAR 04 Sep 22:31:46 22:33:32 15° 139° (SE) 22:35:23 437.305
JUGNU 04 Sep 22:35:34 22:40:29 27° 198° (SSW) 22:45:20 437.505
SEEDS 04 Sep 22:38:19 22:42:30 54° 259° (W) 22:46:39 437.485
UWE-3 04 Sep 22:39:40 22:43:15 24° 79° (E) 22:47:01 435.000/436.395/437.385
CUBEBUG 2 04 Sep 22:40:59 22:45:05 35° 79° (ENE) 22:49:20 437.445
COMPASS 1 04 Sep 22:53:21 22:57:24 44° 259° (W) 23:01:25 437.405
DELFI C3 04 Sep 22:54:46 22:58:07 25° 80° (E) 23:01:31 145.870
Cosmos 2504 04 Sep 22:56:21 23:01:27 20° 94° (E) 23:07:14 435.465 / 435.565
AAUSAT CUBESAT 2 04 Sep 22:59:50 23:03:52 44° 259° (W) 23:07:51 437.432
DOVE 4 04 Sep 23:06:08 23:08:00 12° 262° (W) 23:09:36 437.250
Oscar 11 04 Sep 23:06:32 23:10:54 73° 80° (E) 23:15:14 145.826/435.025
CINEMA 3 04 Sep 23:19:04 23:22:42 24° 260° (W) 23:26:19 145.822/145.860
TIGRISAT 04 Sep 23:21:09 23:23:16 14° 100° (E) 23:25:38 435.000
HO-68 04 Sep 23:25:37 23:31:07 23° 257° (WSW) 23:36:15 435.675
ANTELSAT 04 Sep 23:38:37 23:42:14 27° 100° (E) 23:45:55 437.575/2403.000
AISAT 04 Sep 23:47:59 23:49:06 11° 80° (E) 23:50:35 437.250
SRMSAT 04 Sep 23:52:30 23:57:56 36° 199° (SSW) 00:03:21 437.500
SO-50 04 Sep 23:55:13 23:59:44 74° 113° (ESE) 00:04:24 436.795
ZACube-1 04 Sep 23:59:02 00:03:08 35° 260° (W) 00:07:14 437.345
FUNcube-1 05 Sep 00:02:31 00:06:32 33° 260° (W) 00:10:33 145.935
AUBIESAT-1 05 Sep 00:06:05 00:09:02 30° 104° (ESE) 00:11:59 437.475
VERMONT LUNAR 05 Sep 00:07:21 00:09:52 22° 318° (NW) 00:12:19 437.305
HUMSAT D 05 Sep 00:08:45 00:13:03 86° 258° (WSW) 00:17:22 437.325/437.525
VELOX 1 05 Sep 00:12:34 00:16:07 25° 79° (E) 00:19:47 145.980
M-CUBED/EXP-1 PRIME 05 Sep 00:15:19 00:18:39 61° 105° (ESE) 00:21:53 437.505
UWE-3 05 Sep 00:16:57 00:19:40 15° 261° (W) 00:22:09 435.000/436.395/437.385
CUBEBUG 2 05 Sep 00:21:13 00:21:43 10° 261° (W) 00:21:48 437.445
PCSat 05 Sep 00:21:37 00:26:07 28° 111° (ESE) 00:30:44 145.827
CUSAT 1 05 Sep 00:22:44 00:25:35 49° 94° (E) 00:29:05 437.405
JUGNU 05 Sep 00:27:29 00:30:09 13° 190° (S) 00:32:45 437.505
UNISAT 6 05 Sep 00:28:52 00:33:07 53° 281° (WNW) 00:37:19 437.425
DELFI C3 05 Sep 00:31:49 00:33:03 11° 260° (W) 00:33:58 145.870
PHONESAT 2.4 05 Sep 00:35:17 00:36:29 12° 140° (SE) 00:37:50 2401.200-2431.200
BUGSAT 1 05 Sep 00:35:24 00:38:42 23° 101° (E) 00:42:07 437.445
50 SAT 05 Sep 00:37:19 00:41:17 82° 79° (E) 00:45:14 437.505
DX 1 05 Sep 00:41:48 00:46:06 63° 259° (W) 00:50:21 434.975-435.025
DUCHIFAT 1 05 Sep 00:45:44 00:49:56 63° 102° (ESE) 00:54:08 145.980
Cosmos 2504 05 Sep 00:46:11 00:53:26 45° 275° (W) 01:01:05 435.465 / 435.565
UKube-1 05 Sep 00:47:37 00:51:53 59° 258° (WSW) 00:56:06 .
POLYITAN 1 05 Sep 00:48:18 00:52:33 76° 101° (E) 00:56:48 437.675
POPSAT HIP 1 05 Sep 00:49:09 00:53:24 75° 101° (ESE) 00:57:39 437.405
TIGRISAT 05 Sep 00:56:25 00:59:56 23° 281° (W) 01:03:16 435.000
NANOSAT C BR1 05 Sep 01:04:50 01:09:03 63° 281° (WNW) 01:13:14 145.865
QB50P2 05 Sep 01:07:20 01:11:30 54° 281° (W) 01:15:39 145.880/145.840
CUBEBUG 1 05 Sep 01:08:26 01:12:46 88° 80° (E) 01:17:04 437.445
ANTELSAT 05 Sep 01:17:08 01:18:54 12° 280° (W) 01:20:22 437.575/2403.000
QB50P1 05 Sep 01:20:39 01:24:34 35° 281° (W) 01:28:28 145.935-145.965
AISAT 05 Sep 01:21:42 01:25:34 30° 259° (W) 01:29:22 437.250
DANDE 05 Sep 01:22:57 01:25:13 23° 279° (W) 01:27:45 436.750
ESTCUBE 1 05 Sep 01:23:58 01:28:15 42° 259° (WSW) 01:32:28 437.505/2401.250
BEESAT 3 05 Sep 01:33:04 01:36:51 49° 68° (ENE) 01:40:37 437.485
TISAT 1 05 Sep 01:35:16 01:38:15 20° 79° (E) 01:41:23 437.305
SRMSAT 05 Sep 01:43:58 01:47:38 16° 192° (SSW) 01:51:13 437.500
VELOX 1 05 Sep 01:50:15 01:52:33 13° 260° (W) 01:54:34 145.980
BEESAT 2 05 Sep 01:51:31 01:55:25 63° 68° (ENE) 01:59:18 435.950
PCSat 05 Sep 02:05:34 02:09:25 19° 292° (WNW) 02:13:02 145.827
PHONESAT 2.4 05 Sep 02:11:04 02:14:21 40° 317° (NW) 02:17:36 2401.200-2431.200
BUGSAT 1 05 Sep 02:11:44 02:14:02 14° 280° (W) 02:16:04 437.445
SPROUT 05 Sep 02:23:19 02:27:14 34° 259° (W) 02:31:07 437.525
GONETS M04 05 Sep 02:44:17 02:51:49 35° 95° (E) 02:59:34
BEESAT 05 Sep 02:48:22 02:51:58 22° 79° (E) 02:55:43 436.000
AIST 2 05 Sep 02:57:26 03:01:26 60° 68° (ENE) 03:05:25 435.215
RS-15 05 Sep 03:00:56 03:12:41 56° 68° (ENE) 03:24:37 29.354- 29.394
Gurwin Techsat 1B 05 Sep 03:01:14 03:04:03 15° 101° (E) 03:07:12 435.225
TISAT 1 05 Sep 03:11:18 03:13:53 15° 260° (W) 03:16:15 437.305
SWISSCUBE 05 Sep 03:13:57 03:18:38 56° 78° (ENE) 03:23:18 437.505
Oscar 19 05 Sep 03:22:25 03:27:31 62° 282° (WNW) 03:32:37 437.125/150
SRMSAT 05 Sep 03:37:12 03:37:50 10° 183° (S) 03:38:25 437.500
ITUPSAT 1 05 Sep 03:54:44 03:59:21 47° 258° (WSW) 04:03:55 437.325
JUGNU 05 Sep 04:07:36 04:10:21 13° 170° (S) 04:13:13 437.505
Cosmos 2499 05 Sep 04:24:28 04:31:48 42° 94° (E) 04:39:46 435.465 / 435.565
KKS-1 05 Sep 04:24:48 04:28:59 42° 79° (ENE) 04:33:12 437.445
BEESAT 05 Sep 04:26:15 04:29:41 19° 259° (W) 04:32:54 436.000
ITAMSAT 1 05 Sep 04:30:56 04:36:00 54° 282° (WNW) 04:41:06 435.822/435.867
JAS-2 05 Sep 04:35:56 04:41:45 75° 102° (ESE) 04:47:04 435.910
Gurwin Techsat 1B 05 Sep 04:39:09 04:43:55 34° 282° (WNW) 04:48:39 435.225
GONETS M04 05 Sep 04:41:13 04:48:33 29° 275° (W) 04:55:31
MOZHAYETS 4 05 Sep 05:10:43 05:13:14 15° 80° (E) 05:16:01
ISS 05 Sep 05:12:39 05:14:37 15° 127° (SE) 05:16:41 145.825
RS-15 05 Sep 05:15:09 05:25:15 28° 245° (WSW) 05:34:38 29.354- 29.394
SRMSAT 05 Sep 05:26:08 05:28:10 12° 173° (S) 05:30:17 437.500
AO-7 05 Sep 05:26:39 05:34:51 71° 105° (ESE) 05:43:07 29.400- 29.500
STARS 05 Sep 05:31:12 05:35:23 42° 259° (WSW) 05:39:31 437.465
HORYU 2 05 Sep 05:49:26 05:53:49 67° 282° (WNW) 05:58:12 437.375
JUGNU 05 Sep 05:55:02 06:00:02 28° 162° (SSE) 06:05:07 437.505
Cosmos 2499 05 Sep 06:18:43 06:24:57 23° 277° (W) 06:31:01 435.465 / 435.565
MOZHAYETS 4 05 Sep 06:46:28 06:50:21 25° 259° (W) 06:54:05
O/OREOS (USA 219) 05 Sep 06:48:23 06:52:51 55° 255° (WSW) 06:57:17 437.305
Cubesat XI-IV 05 Sep 06:48:30 06:49:13 10° 101° (E) 06:50:27 437.490
ISS 05 Sep 06:48:51 06:50:56 15° 307° (NW) 06:52:53 145.825
SRMSAT 05 Sep 07:13:39 07:18:12 22° 164° (SSE) 07:22:48 437.500
CUBESAT XI-V 05 Sep 07:15:34 07:19:39 32° 79° (E) 07:23:47 437.345
AO-7 05 Sep 07:23:29 07:27:37 14° 284° (WNW) 07:30:57 29.400- 29.500
CUTE-I 05 Sep 07:28:04 07:32:52 36° 102° (ESE) 07:37:47 437.470
JUGNU 05 Sep 07:43:17 07:49:15 74° 159° (SSE) 07:55:16 437.505
AIST 1 05 Sep 07:59:16 08:02:39 24° 95° (E) 08:06:08
BRITE-PL 05 Sep 08:14:26 08:17:44 17° 99° (E) 08:21:18 437.365/2234.400
Cubesat XI-IV 05 Sep 08:24:07 08:29:14 48° 282° (WNW) 08:34:23 437.490
YUBILEINY 05 Sep 08:35:04 08:40:50 21° 84° (E) 08:47:11 435.215
PRISM 05 Sep 08:54:32 08:58:40 80° 78° (ENE) 09:02:45 437.425
STRAND 1 05 Sep 08:54:59 09:00:05 71° 257° (WSW) 09:05:09 437.568
CUBESAT XI-V 05 Sep 08:55:21 08:56:59 11° 260° (W) 08:58:15 437.345
Cosmos 2491 05 Sep 08:55:22 09:03:00 36° 95° (E) 09:10:47 435.465 / 435.565
SRMSAT 05 Sep 09:01:50 09:07:42 54° 159° (SSE) 09:13:34 437.500
CUTE-I 05 Sep 09:09:50 09:12:52 15° 281° (W) 09:15:33 437.470
